DW8266 Weather Reports


Display with metric or nautical units.
time (UTC)temp
F
wind
direction
speed
MPH
gust
MPH
rain 1hr
in
rain 24hr
in
rain mn
in
humidity
%
barometer
mb
20260902141558 82 241 4.0 9.0 0.00 0.00 0.00 91 1015.4
20260902140059 82 223 4.0 7.0 0.00 0.00 0.00 92 1015.5
20260902134609 81 225 3.0 6.0 0.00 0.00 0.00 92 1015.3
20260902133108 81 219 3.0 6.0 0.00 0.00 0.00 92 1015.3
20260902131559 81 234 2.0 4.0 0.00 0.00 0.00 92 1015.2
20260902130059 81 215 1.0 4.0 0.00 0.00 0.00 92 1014.9
20260902124602 81 227 3.0 7.0 0.00 0.00 0.00 93 1014.6
20260902123059 80 227 3.0 7.0 0.00 0.00 0.00 92 1014.2
20260902121603 80 204 2.0 6.0 0.00 0.00 0.00 92 1014.0
20260902120100 80 232 2.0 4.0 0.00 0.00 0.00 92 1014.1
20260902114606 81 232 2.0 4.0 0.00 0.00 0.00 92 1014.1
20260902113001 80 233 1.0 3.0 0.00 0.00 0.00 92 1014.2
20260902111505 80 233 0.0 3.0 0.00 0.00 0.00 92 1014.2
20260902110059 81 233 1.0 4.0 0.00 0.00 0.00 92 1014.0
20260902104559 81 231 2.0 4.0 0.00 0.00 0.00 92 1014.0
20260902103104 81 231 3.0 7.0 0.00 0.00 0.00 91 1013.9
20260902101558 81 226 3.0 5.0 0.00 0.00 0.00 91 1013.7
20260902094559 81 229 2.0 4.0 0.00 0.00 0.00 91 1013.8
20260902093101 81 224 2.0 5.0 0.00 0.00 0.00 90 1013.9
20260902091609 81 221 3.0 6.0 0.00 0.00 0.00 90 1013.9
20260902090109 81 232 2.0 6.0 0.00 0.00 0.00 90 1013.6
20260902090001 81 229 2.0 6.0 0.00 0.00 0.00 90 1013.6
20260902084601 81 243 3.0 6.0 0.00 0.00 0.00 90 1013.7
20260902083058 81 247 3.0 7.0 0.00 0.00 0.00 89 1013.9
20260902081558 82 234 3.0 8.0 0.00 0.00 0.00 89 1013.7
20260902080000 82 225 3.0 5.0 0.00 0.00 0.00 89 1013.9
20260902074609 82 217 2.0 5.0 0.00 0.00 0.00 89 1013.9
20260902073110 82 217 2.0 7.0 0.00 0.00 0.00 88 1014.0
20260902071623 82 233 2.0 5.0 0.00 0.00 0.00 88 1013.9
20260902070058 82 240 4.0 7.0 0.00 0.00 0.00 88 1014.0
20260902064600 83 227 2.0 5.0 0.00 0.00 0.00 87 1013.9
20260902063059 83 221 2.0 5.0 0.00 0.00 0.00 87 1013.9
20260902061610 83 199 2.0 4.0 0.00 0.00 0.00 86 1013.9
20260902060100 83 198 1.0 3.0 0.00 0.00 0.00 86 1013.8
20260902060002 83 198 1.0 3.0 0.00 0.00 0.00 86 1013.8
20260902054558 83 198 1.0 2.0 0.00 0.00 0.00 86 1014.1
20260902053058 84 198 0.0 3.0 0.00 0.00 0.00 86 1014.0
20260902051558 84 198 1.0 2.0 0.00 0.00 0.00 85 1014.1
20260902050109 84 198 0.0 0.0 0.00 0.00 0.00 85 1014.0
20260902044600 84 198 0.0 2.0 0.00 0.00 0.00 85 1014.1
20260902043101 84 198 0.0 2.0 0.00 0.00 0.00 86 1013.9
20260902041602 84 198 0.0 0.0 0.00 0.00 0.00 84 1014.1
20260902040100 84 198 0.0 0.0 0.00 0.00 0.00 84 1014.2
20260902034600 84 198 0.0 0.0 0.00 0.00 0.00 83 1014.1
20260902033103 84 198 0.0 0.0 0.00 0.00 0.00 83 1014.3
20260902031559 84 198 0.0 1.0 0.00 0.00 0.00 83 1014.2
20260902030100 84 198 1.0 2.0 0.00 0.00 0.00 83 1013.9
20260902024603 85 121 0.0 3.0 0.00 0.00 0.00 82 1013.6
20260902023109 85 121 0.0 0.0 0.00 0.00 0.00 82 1013.5
20260902021603 85 121 0.0 1.0 0.00 0.00 0.00 81 1013.5
20260902020100 86 121 1.0 3.0 0.00 0.00 0.00 81 1012.9
20260902020000 86 121 1.0 3.0 0.00 0.00 0.00 81 1012.9
20260902014601 86 90 0.0 0.0 0.00 0.00 0.00 79 1012.9
20260902013100 86 90 0.0 0.0 0.00 0.00 0.00 77 1012.6
20260902011606 86 90 0.0 0.0 0.00 0.00 0.00 75 1012.6
20260902010120 87 90 0.0 0.0 0.00 0.00 0.00 74 1012.7
20260902010002 87 90 0.0 1.0 0.00 0.00 0.00 75 1012.7
20260902004602 87 90 0.0 2.0 0.00 0.00 0.00 75 1012.9
20260902003101 88 100 0.0 1.0 0.00 0.00 0.00 76 1012.7
20260902001600 88 126 0.0 3.0 0.00 0.00 0.00 76 1012.6
20260902000100 88 107 0.0 5.0 0.00 0.00 0.00 75 1012.7
20260902000001 88 86 0.0 5.0 0.00 0.00 0.00 75 1012.7
20260901234559 89 101 1.0 5.0 0.00 0.00 0.00 72 1012.6
20260901233103 91 69 0.0 2.0 0.00 0.00 0.00 67 1012.6
20260901231600 91 69 0.0 3.0 0.00 0.00 0.00 66 1012.5
20260901230100 91 74 0.0 5.0 0.00 0.00 0.00 64 1012.6
20260901230004 91 74 0.0 5.0 0.00 0.00 0.00 64 1012.6
20260901224600 92 72 0.0 3.0 0.00 0.00 0.00 64 1012.6
20260901223058 92 74 0.0 3.0 0.00 0.00 0.00 63 1012.8
20260901221620 91 76 0.0 1.0 0.00 0.00 0.00 60 1012.9
20260901220057 92 76 0.0 3.0 0.00 0.00 0.00 61 1012.8
20260901220001 92 76 0.0 3.0 0.00 0.00 0.00 62 1012.8
20260901214559 92 65 0.0 3.0 0.00 0.00 0.00 62 1013.3
20260901213108 93 62 0.0 2.0 0.00 0.00 0.00 62 1013.3
20260901211558 94 25 0.0 3.0 0.00 0.00 0.00 61 1013.0
20260901210059 95 81 0.0 4.0 0.00 0.00 0.00 59 1013.0
20260901210001 95 77 1.0 4.0 0.00 0.00 0.00 60 1013.0
20260901204558 95 98 2.0 4.0 0.00 0.00 0.00 61 1012.9
20260901203105 95 286 0.0 4.0 0.00 0.00 0.00 61 1013.2
20260901201558 95 115 1.0 9.0 0.00 0.00 0.00 61 1013.5
20260901200107 94 70 0.0 3.0 0.00 0.00 0.00 63 1013.8
20260901194604 93 259 1.0 4.0 0.00 0.00 0.00 65 1014.0
20260901193114 93 87 0.0 3.0 0.00 0.00 0.00 67 1014.2
20260901191600 92 80 0.0 2.0 0.00 0.00 0.00 65 1014.3
20260901190119 92 225 0.0 4.0 0.00 0.00 0.00 68 1014.3
20260901184605 92 318 0.0 3.0 0.00 0.00 0.00 69 1014.6
20260901183100 92 88 1.0 3.0 0.00 0.00 0.00 70 1014.7
20260901181600 91 72 0.0 7.0 0.00 0.00 0.00 71 1014.7
20260901180100 91 302 2.0 5.0 0.00 0.00 0.00 73 1015.0
20260901174606 90 288 0.0 5.0 0.00 0.00 0.00 76 1015.4
20260901173102 89 338 0.0 3.0 0.00 0.00 0.00 77 1015.7
20260901171600 88 331 0.0 3.0 0.00 0.00 0.00 79 1015.9
20260901164559 87 288 0.0 4.0 0.00 0.00 0.00 82 1016.2
20260901163104 87 293 1.0 4.0 0.00 0.00 0.00 82 1016.2
20260901161614 86 300 1.0 5.0 0.00 0.00 0.00 82 1016.3
20260901160058 86 276 1.0 6.0 0.00 0.00 0.00 83 1016.2
20260901154606 86 125 0.0 4.0 0.00 0.00 0.00 84 1016.3
20260901153123 85 273 1.0 5.0 0.00 0.00 0.00 85 1016.1
20260901151559 85 305 1.0 5.0 0.00 0.00 0.00 87 1016.1
20260901150058 84 276 1.0 6.0 0.00 0.00 0.00 87 1016.2
20260901144600 83 277 0.0 4.0 0.00 0.00 0.00 88 1016.4
20260901143059 83 269 0.0 4.0 0.00 0.00 0.00 88 1016.2